Location: Aragoneses
(41.0275°N, 4.3847°W)
Time: 14:18:19
(UTC+00:00)

ISS - Visible Passes

Search period start: 15 February 2026 00:00
Search period end: 25 February 2026 00:00
Orbit: 413 x 428 km, 51.6° (Epoch: 14 February)

Date Brightness Start Highest point End Pass type
(mag) Time Alt. Az. Time Alt. Az. Time Alt. Az.
15 Feb -0.6 04:36:22 14° E 04:36:22 14° E 04:37:14 10° E visible
15 Feb -3.5 06:09:22 21° W 06:11:22 50° NNW 06:14:38 10° NE visible
16 Feb -3.7 05:24:33 71° NNE 05:24:33 71° NNE 05:27:36 10° NE visible
17 Feb -0.8 04:39:35 17° ENE 04:39:35 17° ENE 04:40:29 10° ENE visible
17 Feb -2.3 06:12:35 17° WNW 06:14:13 24° NNW 06:17:01 10° NE visible
18 Feb -2.5 05:27:30 30° N 05:27:30 30° N 05:30:02 10° NE visible
19 Feb -0.9 04:42:19 15° NE 04:42:19 15° NE 04:43:01 10° NE visible
19 Feb -1.6 06:15:18 11° NW 06:17:12 16° NNW 06:19:22 10° NNE visible
20 Feb -1.8 05:30:03 19° NNW 05:30:03 19° NNW 05:32:19 10° NNE visible
21 Feb -0.8 04:44:44 13° NNE 04:44:44 13° NNE 04:45:17 10° NE visible
21 Feb -1.3 06:18:29 10° NNW 06:20:14 13° N 06:21:59 10° NNE visible
22 Feb -1.4 05:32:21 14° NNW 05:32:48 14° N 05:34:41 10° NNE visible
23 Feb -0.8 04:46:57 12° NNE 04:46:57 12° NNE 04:47:30 10° NNE visible
23 Feb -1.3 06:21:13 10° NNW 06:23:13 15° N 06:25:13 10° NE visible
24 Feb -1.3 05:34:31 12° NNW 05:35:45 14° N 05:37:33 10° NE visible
